Location: Bluewater Lake State Park
(35.2919°N, 108.1111°W)
Time: 13:11:48
(UTC-07:00)

OTV 5 (USA 277) - Visible Passes

Search period start: 19 November 2018 00:00
Search period end: 29 November 2018 00:00
Orbit: 339 x 348 km, 54.5° (Epoch: 14 November)

Date Brightness Start Highest point End Pass type
(mag) Time Alt. Az. Time Alt. Az. Time Alt. Az.
24 Nov ? 05:39:58 10° S 05:42:19 23° SE 05:44:40 10° ENE visible
25 Nov ? 06:02:50 10° SW 06:05:41 74° NW 06:08:33 10° NE visible
26 Nov ? 04:54:50 21° ESE 04:54:50 21° ESE 04:56:44 10° ENE visible
26 Nov ? 06:27:06 10° W 06:29:17 19° NW 06:31:29 10° NNE visible
27 Nov ? 05:18:56 33° NE 05:18:56 33° NE 05:20:40 10° NE visible
28 Nov ? 05:42:34 16° N 05:42:34 16° N 05:43:38 10° NNE visible
